EW4389 Weather Reports


Display with metric or nautical units.
time (UTC)temp
F
wind
direction
speed
MPH
gust
MPH
rain 1hr
in
rain 24hr
in
rain mn
in
humidity
%
barometer
mb
20260502123101 36 310 4.0 10.0 0.00 0.12 0.00 57 1012.0
20260502121551 36 308 5.0 11.0 0.00 0.12 0.00 55 1012.1
20260502114549 34 294 6.0 10.0 0.00 0.12 0.00 55 1012.0
20260502113049 33 288 3.0 9.0 0.00 0.12 0.00 56 1011.9
20260502111546 33 294 2.0 8.0 0.00 0.12 0.00 56 1011.9
20260502110041 33 298 2.0 8.0 0.00 0.12 0.00 57 1011.7
20260502104541 32 298 5.0 8.0 0.00 0.12 0.00 57 1011.6
20260502103037 32 302 4.0 9.0 0.00 0.12 0.00 57 1011.5
20260502101550 33 291 5.0 9.0 0.00 0.12 0.00 57 1011.4
20260502091528 34 283 3.0 8.0 0.00 0.12 0.00 57 1011.1
20260502071507 37 326 8.0 13.0 0.00 0.12 0.00 56 1010.2
20260502070005 37 302 4.0 13.0 0.00 0.12 0.00 55 1010.2
20260502064502 37 300 8.0 15.0 0.00 0.12 0.00 54 1010.3
20260502063059 38 281 5.0 10.0 0.00 0.12 0.00 53 1010.3
20260502061558 38 290 4.0 10.0 0.00 0.12 0.00 52 1010.3
20260502060058 38 292 4.0 9.0 0.00 0.12 0.00 51 1010.3
20260502054558 39 295 5.0 11.0 0.00 0.12 0.00 50 1010.3
20260502053110 39 305 7.0 10.0 0.00 0.12 0.00 50 1010.3
20260502051552 39 311 4.0 9.0 0.00 0.12 0.00 49 1010.4
20260502050050 39 300 9.0 14.0 0.00 0.12 0.00 49 1010.5
20260502044547 39 315 8.0 12.0 0.00 0.12 0.00 49 1010.1
20260502043044 39 294 6.0 11.0 0.00 0.12 0.00 49 1010.3
20260502041543 40 294 5.0 10.0 0.00 0.12 0.00 49 1010.1
20260502040043 40 299 4.0 8.0 0.00 0.12 0.12 49 1010.1
20260502034538 40 296 5.0 9.0 0.00 0.12 0.12 49 1010.1
20260502033037 40 288 6.0 10.0 0.00 0.12 0.12 49 1010.1
20260502031539 40 292 3.0 9.0 0.00 0.12 0.12 49 1010.1
20260502030051 40 295 5.0 9.0 0.00 0.12 0.12 49 1010.2
20260502024542 40 280 3.0 6.0 0.00 0.12 0.12 49 1010.2
20260502023047 40 286 2.0 5.0 0.00 0.12 0.12 49 1010.2
20260502021540 40 330 2.0 5.0 0.00 0.12 0.12 49 1010.2
20260502020034 40 339 2.0 5.0 0.00 0.12 0.12 49 1010.3
20260502014538 40 339 3.0 5.0 0.00 0.12 0.12 50 1010.1
20260502013033 40 339 2.0 4.0 0.00 0.12 0.12 49 1009.8
20260502011531 40 339 2.0 4.0 0.00 0.12 0.12 50 1009.7
20260502010032 40 339 1.0 4.0 0.00 0.12 0.12 50 1009.4
20260502004529 41 339 1.0 3.0 0.01 0.12 0.12 50 1009.2
20260502003029 41 339 0.0 4.0 0.01 0.12 0.12 50 1009.1
20260502001529 41 339 0.0 2.0 0.01 0.12 0.12 50 1008.9
20260502000028 41 339 3.0 5.0 0.02 0.12 0.12 50 1008.9
20260501234527 41 339 0.0 5.0 0.01 0.11 0.11 50 1008.7
20260501233027 42 339 3.0 6.0 0.01 0.11 0.11 50 1008.6
20260501231526 42 334 4.0 6.0 0.02 0.11 0.11 49 1008.4
20260501230026 42 334 2.0 6.0 0.01 0.10 0.10 49 1008.4
20260501224527 43 330 0.0 5.0 0.02 0.10 0.10 49 1008.3
20260501223033 43 330 3.0 6.0 0.02 0.10 0.10 50 1008.4
20260501221525 43 327 2.0 6.0 0.01 0.09 0.09 50 1008.3
20260501220024 43 327 1.0 5.0 0.02 0.09 0.09 50 1008.4
20260501214523 43 317 1.0 4.0 0.02 0.08 0.08 50 1008.3
20260501213022 43 315 2.0 4.0 0.03 0.08 0.08 51 1008.3
20260501211522 43 299 0.0 4.0 0.04 0.08 0.08 52 1008.3
20260501210022 43 294 0.0 3.0 0.03 0.07 0.07 53 1008.1
20260501204519 42 294 1.0 4.0 0.03 0.06 0.06 55 1008.1
20260501203036 43 290 2.0 4.0 0.02 0.05 0.05 57 1008.2
20260501201517 43 289 0.0 2.0 0.02 0.04 0.04 58 1008.2
20260501200016 42 289 0.0 2.0 0.03 0.04 0.04 59 1008.3
20260501194518 42 289 0.0 3.0 0.03 0.03 0.03 61 1008.4
20260501193013 42 289 0.0 2.0 0.03 0.03 0.03 62 1008.6
20260501191512 42 289 0.0 1.0 0.02 0.02 0.02 64 1008.6
20260501190012 42 289 0.0 1.0 0.01 0.01 0.01 65 1008.6
20260501184527 42 289 0.0 2.0 0.00 0.00 0.00 68 1008.7
20260501183008 42 290 2.0 4.0 0.00 0.00 0.00 70 1008.8
20260501181507 43 290 0.0 5.0 0.00 0.00 0.00 71 1008.9
20260501180016 44 289 2.0 5.0 0.00 0.00 0.00 71 1009.0
20260501174509 44 290 1.0 9.0 0.00 0.00 0.00 72 1009.0
20260501173005 43 264 3.0 9.0 0.00 0.00 0.00 71 1008.9
20260501171505 44 278 5.0 9.0 0.00 0.00 0.00 71 1009.2
20260501170003 44 277 5.0 9.0 0.00 0.00 0.00 71 1009.2
20260501164606 45 250 2.0 13.0 0.00 0.00 0.00 70 1009.4
20260501163100 46 277 5.0 16.0 0.00 0.00 0.00 68 1009.5
20260501163003 46 277 6.0 16.0 0.00 0.00 0.00 68 1009.5
20260501161603 46 318 6.0 13.0 0.00 0.00 0.00 67 1009.4
20260501160059 45 283 4.0 11.0 0.00 0.00 0.00 67 1009.7
20260501154558 47 250 6.0 11.0 0.00 0.00 0.00 62 1009.4
20260501153056 46 255 1.0 8.0 0.00 0.00 0.00 60 1009.6
20260501151556 46 276 3.0 11.0 0.00 0.00 0.00 62 1009.7
20260501150055 47 295 2.0 8.0 0.00 0.00 0.00 63 1009.6